Regional Weather Roundup
Issued by NWS

Home | Current Version | Previous Version | Graphics & Text | Print | Product List | Glossary On
Versions: 1 2 3 4 5 6 7 8 9 10 11 12 13 14 15 16 17 18 19 20 21 22 23 24 25 26 27 28 29 30 31 32 33 34 35 36 37 38 39 40 41 42 43 44 45 46 47 48 49 50
000
ASUS43 KOAX 040910
RWRNE

WEATHER ROUNDUP FOR NEBRASKA
NATIONAL WEATHER SERVICE OMAHA NE
400 AM CDT MON MAY 04 2015

NOTES: SATELLITE DATA IS BEING USED TO AUGMENT CLOUD COVER ABOVE
       12000 FEET.
       "FAIR" INDICATES FEW OR NO CLOUDS BELOW 12,000 FEET WITH NO
       SIGNIFICANT WEATHER AND/OR OBSTRUCTIONS TO VISIBILITY.

  * THESE STATIONS DO NOT REPORT WEATHER SUCH AS RAIN...SNOW OR FOG.

NEZ001>004-019>022-054>056-041000-
NEBRASKA PANHANDLE

CITY           SKY/WX    TMP DP  RH WIND       PRES   REMARKS
SCOTTSBLUFF    MOCLDY    51  40  65 SE7       30.10R
ALLIANCE       CLOUDY    51  37  58 E3        30.10R
CHADRON        LGT RAIN  51  38  60 E9        30.10R
KIMBALL        MOCLDY    44  39  83 SE7       30.09S
SIDNEY         MOCLDY    49  37  63 E7        30.10R
$$

NEZ057>060-069>072-079>082-041000-
SOUTHWEST NEBRASKA

CITY           SKY/WX    TMP DP  RH WIND       PRES   REMARKS
NORTH PLATTE   MOCLDY    54  38  54 CALM      30.08R
IMPERIAL       CLOUDY    50  38  63 NE8       30.05F
LEXINGTON      CLOUDY    58  39  50 SE3       30.06R
MCCOOK         CLOUDY    58  38  47 NE14      30.00F
OGALLALA       CLOUDY    55  35  48 E15       30.06F
$$

NEZ005>010-023>029-035>040-094-041000-
NORTH CENTRAL NEBRASKA

CITY           SKY/WX    TMP DP  RH WIND       PRES   REMARKS
VALENTINE      PTCLDY    48  30  49 E5        30.10S
AINSWORTH      PTCLDY    47  32  56 NE7       30.09S
BROKEN BOW     MOCLDY    57  36  45 NE15G23   30.04R
O`NEILL        MOCLDY    50  37  60 N8        30.07S
ORD            CLOUDY    58  35  42 NE10      30.02R
THEDFORD       PTCLDY    51  34  52 NE5       30.08R
$$

NEZ041-046>049-061>064-073>077-083>087-041000-
SOUTH CENTRAL NEBRASKA

CITY           SKY/WX    TMP DP  RH WIND       PRES   REMARKS
GRAND ISLAND   CLOUDY    61  39  44 NE15G26   29.97R
AURORA         CLOUDY    61  44  53 NE20G26   29.96R
HASTINGS       TSTM      58  48  69 NE18      29.97R
HEBRON         CLOUDY    67  58  73 E15G21    29.88R
HOLDREGE       LGT RAIN  55  43  65 NE25G31   29.99F
KEARNEY *      CLOUDY    59  37  44 NE14      30.01R
YORK           CLOUDY    59  46  63 NE20G26   29.96R
$$

NEZ011>018-030>034-042>045-041000-
NORTHEAST NEBRASKA

CITY           SKY/WX    TMP DP  RH WIND       PRES   REMARKS
NORFOLK        CLOUDY    60  31  33 NE16      30.01R
ALBION         MOCLDY    58  32  37 N12       30.02R
BLAIR          CLOUDY    59  48  68 N10       29.94F
COLUMBUS *     CLOUDY    59  43  55 N12       29.99S
FREMONT        CLOUDY    58  49  72 N3        29.97R
TEKAMAH        CLOUDY    58  48  69 N16       29.95F
WAYNE          CLOUDY    57  37  47 N13       30.04R
$$

NEZ050>053-065>068-078-088>093-041000-
SOUTHEAST NEBRASKA

CITY           SKY/WX    TMP DP  RH WIND       PRES   REMARKS
LINCOLN        CLOUDY    61  54  77 NE8       29.94S
OMAHA EPPLEY   CLOUDY    61  54  77 NE7       29.92F
BEATRICE       CLOUDY    62  55  78 E10       29.90R
FALLS CITY     CLOUDY    65  55  70 SE13      29.90F
NEBRASKA CITY  CLOUDY    58  54  86 N5        29.93R
PLATTSMOUTH    CLOUDY    58  54  85 CALM      29.93R
$$

NEZ044-045-051>053-067-041000-
OMAHA AREA

CITY           SKY/WX    TMP DP  RH WIND       PRES   REMARKS
OMAHA EPPLEY   CLOUDY    61  54  77 NE7       29.92F
BLAIR          CLOUDY    59  48  68 N10       29.94F
FREMONT        CLOUDY    58  49  72 N3        29.97R
MILLARD        CLOUDY    63  53  69 NE7       29.92F
OFFUTT AFB     CLOUDY    62  56  80 N10       29.91F
PLATTSMOUTH    CLOUDY    58  54  85 CALM      29.93R
WAHOO          CLOUDY    58  49  72 N7        29.95S
$$



USA.gov is the U.S. government's official web portal to all federal, state and local government web resources and services.